Volver al catálogo

STARLINK-3558

ActivoComunicacionesVLEO
NORAD 52119·PAYLOAD·🇺🇸 United States

Lanzado Mar 19, 2022 desde Cape Canaveral Space Force Station

Loading…

Próximos Pases (próximas 24 horas)

TLE

ActualizadoSource: CelesTrak SupGP

Época: Sep 15, 2026, 01:55 UTC

1 52119C 22029AH  26258.08034722  .00022021  00000+0  65064-3 0  2580
2 52119  53.1570 293.0024 0001239  93.2942  90.1193 15.34378729    18

Sigue STARLINK-3558 en tiempo real con AllMySat

Download on the App Store